Flag for Colombia Weather past 2 weeks in Bucaramanga, Colombia

Now
79 °F

Scattered clouds.


Feels Like: 80 °F
Forecast: 66 / 86 °F
Wind: 7 mph from South

Location: Bucaramanga / Palonegro

Current Time: Oct 2, 2014 at 10:34:20 AM

Latest Report: Oct 2, 2014 at 10:00 AM


Visibility: N/A

Pressure: 30.03 "Hg

Humidity: 54%

Dew point: 61 °F

Location of BucaramangaLocation

Historic Weather in Bucaramanga — Graph

°F

Bucaramanga temperature yesterday

Maximum temperature yesterday: 81 °F (at 12:00 PM)
Minimum temperature yesterday: 68 °F (at 6:00 AM)
Average temperature yesterday: 73 °F

Past Weeks' High & Low Weather Summary

 TemperatureHumidityPressure
High81 °F (Sep 23, 1:00 PM)100% (Sep 18, 7:00 AM)30.13 "Hg (Sep 18, 7:00 AM)
Low64 °F (Sep 20, 6:00 AM)54% (Sep 23, 1:00 PM)29.87 "Hg (Sep 27, 4:00 PM)
Average72 °F82%29.99 "Hg
* Reported Sep 17 9:00 AM — Oct 2 9:00 AM, Bucaramanga, Weather by CustomWeather, © 2014

Note: Actual official high and low records may vary slightly from our data, if they occured in-between our weather recording intervals... More about our weather records

Advertising

Bucaramanga weather history for previous 24 hours

 ConditionsComfort  
Time TempWeatherWind HumidityBarometerVisibility
9:00 AM
Oct 2
73 °FScattered clouds.6 mph65%30.01 "HgN/A
8:00 AM70 °FScattered clouds.12 mph73%30.01 "HgN/A
7:00 AM66 °FPartly sunny.10 mph83%30.00 "HgN/A
6:00 AM66 °FScattered clouds.10 mph83%29.99 "HgN/A
12:00 AM68 °FPassing clouds.3 mph83%30.01 "HgN/A
11:00 PM
Oct 1
68 °FPassing clouds.5 mph78%30.01 "HgN/A
10:00 PM68 °FPassing clouds.12 mph78%30.00 "HgN/A
9:00 PM70 °FPassing clouds.7 mph88%29.97 "HgN/A
8:00 PM70 °FPassing clouds.5 mph88%29.97 "HgN/A
7:00 PM72 °FPassing clouds.No wind83%29.96 "HgN/A
6:00 PM72 °FScattered showers. Passing clouds.No wind94%29.91 "HgN/A
5:00 PM73 °FScattered showers. Broken clouds.5 mph89%29.94 "HgN/A
4:00 PM75 °FDrizzle. Broken clouds.2 mph83%29.93 "HgN/A
3:00 PM77 °FScattered showers. Broken clouds.5 mph74%29.94 "HgN/A
2:00 PM77 °FBroken clouds.7 mph74%29.95 "HgN/A
1:00 PM77 °FBroken clouds.10 mph74%29.98 "HgN/A
12:00 PM81 °FScattered clouds.7 mph58%29.98 "HgN/A
11:00 AM79 °FPartly sunny.5 mph61%30.01 "HgN/A
10:00 AM75 °FPartly sunny.3 mph65%30.03 "HgN/A
Weather by CustomWeather, © 2014

See weather overviewHow to use our weather pages